Powrót do katalogu

CZ-4 DEB

AktywnySSO
NORAD 20969·DEBRIS·🇨🇳 China

Wystrzelony Sep 3, 1990 z Taiyuan Satellite Launch Center

Loading…

Następne Przeloty (najbliższe 24 godziny)

TLE

ŚwieżeSource: Space-Track

Epoka: Sep 14, 2026, 11:58 UTC

1 20969U 90081CB  26257.49913337  .00001947  00000-0  51593-3 0  9992
2 20969  98.4275 267.5142 0040598  78.3177  75.0936 14.49368514869849

Śledź CZ-4 DEB w czasie rzeczywistym z AllMySat

Download on the App Store